Location: Wildlife_Club
(35.6000°N, 81.4330°W)
Time: 00:12:42
(UTC-04:00)

A-11 Canister half - Pass Details

Date: 30 June 2019
Orbit: 1514 x 1685 km, 47.2° (Epoch: 17 July)

Event Time Altitude Azimuth Distance (km) Brightness Sun altitude
Rises 06:12:53 0° 166° (SSE) 4,920 11.5 -0.9°
Reaches altitude 10° 06:19:47 10° 134° (SE) 3,940 11.4 0.3°
Maximum altitude 06:22:03 11° 121° (ESE) 3,864 11.6 0.7°
Drops below altitude 10° 06:24:20 10° 107° (ESE) 3,937 11.9 1.1°
Sets 06:31:07 0° 76° (ENE) 4,906 13.8 2.4°
